This is the latest recevied weather packets stored in our database for station/object DG4DAA-13. If no packets are shown the sender has not sent any weather packets the latest 10 day(s).
| Time | Temp. | Humidity | Pressure | Rain* | Wind** | Luminosity | Snow |
|---|---|---|---|---|---|---|---|
| 1777927102 | 13.89° C | 89% | 1015.1 hPa | 0.25 mm | - | - | - |
| 1777925327 | 13.89° C | 89% | 1015.1 hPa | 0.25 mm | - | - | - |
| 1777925302 | 13.89° C | 89% | 1015.1 hPa | 0.25 mm | - | - | - |
| 1777923534 | 14.44° C | 88% | 1014.9 hPa | 0.25 mm | - | - | - |
| 1777923502 | 14.44° C | 88% | 1014.9 hPa | 0.25 mm | - | - | - |
| 1777921702 | 14.44° C | 88% | 1014.8 hPa | 0.25 mm | - | - | - |
| 1777919905 | 15° C | 86% | 1015.1 hPa | 0.25 mm | - | - | - |
| 1777918103 | 15.56° C | 85% | 1015.1 hPa | 0.76 mm | - | - | - |
| 1777916302 | 16.11° C | 81% | 1015.1 hPa | 0.51 mm | - | - | - |
| 1777914502 | 17.78° C | 76% | 1014.9 hPa | 0 mm | - | - | - |
| 1777912702 | 18.33° C | 73% | 1014.6 hPa | 0 mm | - | - | - |
| 1777910902 | 18.33° C | 70% | 1014.4 hPa | 0 mm | - | - | - |
| 1777909102 | 19.44° C | 70% | 1014.3 hPa | 0 mm | - | - | - |
| 1777907302 | 19.44° C | 70% | 1014.4 hPa | 0 mm | - | - | - |
| 1777905503 | 20° C | 67% | 1014.2 hPa | 0 mm | - | - | - |
| 1777903703 | 20° C | 68% | 1014.4 hPa | 0 mm | - | - | - |
| 1777901903 | 20.56° C | 67% | 1014.5 hPa | 0 mm | - | - | - |
| 1777900103 | 20.56° C | 67% | 1014.6 hPa | 0 mm | - | - | - |
| 1777898303 | 21.11° C | 65% | 1014.4 hPa | 0 mm | - | - | - |
| 1777896503 | 21.67° C | 63% | 1014.6 hPa | 0 mm | - | - | - |
| 1777892903 | 20.56° C | 67% | 1014.9 hPa | 0 mm | - | - | - |
| 1777891103 | 20.56° C | 66% | 1015.2 hPa | 0 mm | - | - | - |
| 1777889303 | 20° C | 67% | 1015.4 hPa | 0 mm | - | - | - |
| 1777887503 | 20.56° C | 67% | 1015.3 hPa | 0 mm | - | - | - |
| 1777885703 | 19.44° C | 65% | 1015.6 hPa | 0 mm | - | - | - |
* Rain latest hour (hover to see other rain measurements)
** Current wind speed in m/s (hover to see current wind gust speed)